Time,TemperatureF,DewpointF,PressureIn,WindDirection,WindDirectionDegrees,WindSpeedMPH,WindSpeedGustMPH,Humidity,HourlyPrecipIn,Conditions,Clouds,dailyrainin,SoftwareType,DateUTC
2013-01-19 00:04:00,61.0,-99.9,30.22,NNE,23,8.0,11.0,-999,-99.99,,,-99.99,,2013-01-19 05:04:00,
2013-01-19 00:13:00,60.0,-99.9,30.21,NNE,19,8.0,9.0,-999,-99.99,,,-99.99,,2013-01-19 05:13:00,
2013-01-19 00:23:00,60.0,-99.9,30.21,NNE,17,8.0,11.0,-999,-99.99,,,-99.99,,2013-01-19 05:23:00,
2013-01-19 00:33:00,60.0,-99.9,30.21,NNE,28,7.0,10.0,-999,-99.99,,,-99.99,,2013-01-19 05:33:00,
2013-01-19 00:43:00,60.0,-99.9,30.20,NNE,21,7.0,9.0,-999,-99.99,,,-99.99,,2013-01-19 05:43:00,
2013-01-19 00:53:00,61.0,-99.9,30.20,NNE,27,6.0,9.0,-999,-99.99,,,-99.99,,2013-01-19 05:53:00,
2013-01-19 01:03:00,60.0,-99.9,30.20,NNE,23,7.0,9.0,-999,-99.99,,,-99.99,,2013-01-19 06:03:00,
2013-01-19 01:12:00,60.0,-99.9,30.19,NNE,26,9.0,12.0,-999,-99.99,,,-99.99,,2013-01-19 06:12:00,
2013-01-19 01:23:00,60.0,-99.9,30.19,NNE,16,9.0,11.0,-999,-99.99,,,-99.99,,2013-01-19 06:23:00,
2013-01-19 01:33:00,61.0,-99.9,30.19,NNE,19,9.0,12.0,-999,-99.99,,,-99.99,,2013-01-19 06:33:00,
2013-01-19 01:43:00,61.0,-99.9,30.19,NE,36,7.0,12.0,-999,-99.99,,,-99.99,,2013-01-19 06:43:00,
2013-01-19 01:53:00,60.0,-99.9,30.19,NE,38,8.0,10.0,-999,-99.99,,,-99.99,,2013-01-19 06:53:00,
2013-01-19 02:02:00,61.0,-99.9,30.19,NE,34,7.0,10.0,-999,-99.99,,,-99.99,,2013-01-19 07:02:00,
2013-01-19 02:12:00,60.0,-99.9,30.18,NNE,19,8.0,10.0,-999,-99.99,,,-99.99,,2013-01-19 07:12:00,
2013-01-19 02:23:00,60.0,-99.9,30.18,NNE,21,8.0,10.0,-999,-99.99,,,-99.99,,2013-01-19 07:23:00,
2013-01-19 02:33:00,61.0,-99.9,30.18,NNE,22,8.0,11.0,-999,-99.99,,,-99.99,,2013-01-19 07:33:00,
2013-01-19 02:43:00,61.0,-99.9,30.18,NNE,31,8.0,10.0,-999,-99.99,,,-99.99,,2013-01-19 07:43:00,
2013-01-19 02:53:00,61.0,-99.9,30.18,NE,39,8.0,11.0,-999,-99.99,,,-99.99,,2013-01-19 07:53:00,
2013-01-19 03:03:00,61.0,-99.9,30.18,NE,39,9.0,11.0,-999,-99.99,,,-99.99,,2013-01-19 08:03:00,
2013-01-19 03:12:00,61.0,-99.9,30.18,NNE,29,9.0,13.0,-999,-99.99,,,-99.99,,2013-01-19 08:12:00,
2013-01-19 03:22:00,61.0,-99.9,30.18,NNE,23,9.0,12.0,-999,-99.99,,,-99.99,,2013-01-19 08:22:00,
2013-01-19 03:33:00,62.0,-99.9,30.18,NNE,23,9.0,12.0,-999,-99.99,,,-99.99,,2013-01-19 08:33:00,
2013-01-19 03:43:00,62.0,-99.9,30.17,NNE,25,9.0,12.0,-999,-99.99,,,-99.99,,2013-01-19 08:43:00,
2013-01-19 03:53:00,61.0,-99.9,30.17,NNE,23,10.0,13.0,-999,-99.99,,,-99.99,,2013-01-19 08:53:00,
2013-01-19 04:03:00,62.0,-99.9,30.17,NNE,25,11.0,15.0,-999,-99.99,,,-99.99,,2013-01-19 09:03:00,
2013-01-19 04:12:00,62.0,-99.9,30.17,NNE,25,10.0,13.0,-999,-99.99,,,-99.99,,2013-01-19 09:12:00,
2013-01-19 04:23:00,62.0,-99.9,30.17,NNE,19,9.0,14.0,-999,-99.99,,,-99.99,,2013-01-19 09:23:00,
2013-01-19 04:33:00,62.0,-99.9,30.17,NNE,22,9.0,12.0,-999,-99.99,,,-99.99,,2013-01-19 09:33:00,
2013-01-19 04:43:00,61.0,-99.9,30.16,NNE,21,10.0,12.0,-999,-99.99,,,-99.99,,2013-01-19 09:43:00,
2013-01-19 04:53:00,60.0,-99.9,30.16,NNE,17,13.0,17.0,-999,-99.99,,,-99.99,,2013-01-19 09:53:00,
2013-01-19 05:02:00,60.0,-99.9,30.17,NNE,21,10.0,15.0,-999,-99.99,,,-99.99,,2013-01-19 10:02:00,
2013-01-19 05:13:00,60.0,-99.9,30.17,NNE,19,9.0,13.0,-999,-99.99,,,-99.99,,2013-01-19 10:13:00,
2013-01-19 05:23:00,60.0,-99.9,30.17,NNE,32,10.0,13.0,-999,-99.99,,,-99.99,,2013-01-19 10:23:00,
2013-01-19 05:33:00,60.0,-99.9,30.17,NNE,18,10.0,13.0,-999,-99.99,,,-99.99,,2013-01-19 10:33:00,
2013-01-19 05:43:00,60.0,-99.9,30.18,NNE,26,9.0,12.0,-999,-99.99,,,-99.99,,2013-01-19 10:43:00,
2013-01-19 05:53:00,60.0,-99.9,30.18,NNE,16,10.0,13.0,-999,-99.99,,,-99.99,,2013-01-19 10:53:00,
2013-01-19 06:03:00,60.0,-99.9,30.18,NNE,19,10.0,13.0,-999,-99.99,,,-99.99,,2013-01-19 11:03:00,
2013-01-19 06:13:00,60.0,-99.9,30.18,NNE,24,9.0,14.0,-999,-99.99,,,-99.99,,2013-01-19 11:13:00,
2013-01-19 06:48:00,60.0,-99.9,30.19,NNE,31,9.0,12.0,-999,-99.99,,,-99.99,,2013-01-19 11:48:00,
2013-01-19 07:48:00,60.0,-99.9,30.20,NE,34,10.0,14.0,-999,-99.99,,,-99.99,,2013-01-19 12:48:00,
2013-01-19 07:53:00,61.0,-99.9,30.20,NNE,31,10.0,12.0,-999,-99.99,,,-99.99,,2013-01-19 12:53:00,
2013-01-19 08:03:00,61.0,-99.9,30.20,NE,34,10.0,12.0,-999,-99.99,,,-99.99,,2013-01-19 13:03:00,
2013-01-19 08:13:00,61.0,-99.9,30.21,NNE,30,8.0,12.0,-999,-99.99,,,-99.99,,2013-01-19 13:13:00,
2013-01-19 08:23:00,61.0,-99.9,30.21,NNE,23,8.0,11.0,-999,-99.99,,,-99.99,,2013-01-19 13:23:00,
2013-01-19 08:34:00,61.0,-99.9,30.21,NNE,18,8.0,11.0,-999,-99.99,,,-99.99,,2013-01-19 13:34:00,
2013-01-19 08:43:00,61.0,-99.9,30.21,NNE,28,9.0,12.0,-999,-99.99,,,-99.99,,2013-01-19 13:43:00,
2013-01-19 08:54:00,61.0,-99.9,30.22,NNE,32,10.0,12.0,-999,-99.99,,,-99.99,,2013-01-19 13:54:00,
2013-01-19 09:03:00,62.0,-99.9,30.22,NNE,22,9.0,12.0,-999,-99.99,,,-99.99,,2013-01-19 14:03:00,
2013-01-19 09:13:00,62.0,-99.9,30.22,NNE,22,9.0,11.0,-999,-99.99,,,-99.99,,2013-01-19 14:13:00,
2013-01-19 09:23:00,62.0,-99.9,30.22,NNE,32,9.0,11.0,-999,-99.99,,,-99.99,,2013-01-19 14:23:00,
2013-01-19 09:34:00,62.0,-99.9,30.22,NE,34,9.0,11.0,-999,-99.99,,,-99.99,,2013-01-19 14:34:00,
2013-01-19 09:43:00,62.0,-99.9,30.23,NE,37,9.0,11.0,-999,-99.99,,,-99.99,,2013-01-19 14:43:00,
2013-01-19 09:54:00,62.0,-99.9,30.23,NE,38,10.0,11.0,-999,-99.99,,,-99.99,,2013-01-19 14:54:00,
2013-01-19 10:03:00,63.0,-99.9,30.23,NE,39,9.0,11.0,-999,-99.99,,,-99.99,,2013-01-19 15:03:00,
2013-01-19 10:13:00,63.0,-99.9,30.23,NE,34,9.0,12.0,-999,-99.99,,,-99.99,,2013-01-19 15:13:00,
2013-01-19 10:23:00,63.0,-99.9,30.23,NE,42,9.0,11.0,-999,-99.99,,,-99.99,,2013-01-19 15:23:00,
2013-01-19 10:34:00,63.0,-99.9,30.24,NE,44,8.0,10.0,-999,-99.99,,,-99.99,,2013-01-19 15:34:00,
2013-01-19 10:43:00,64.0,-99.9,30.24,ENE,57,6.0,9.0,-999,-99.99,,,-99.99,,2013-01-19 15:43:00,
2013-01-19 10:53:00,64.0,-99.9,30.24,NE,47,8.0,10.0,-999,-99.99,,,-99.99,,2013-01-19 15:53:00,
2013-01-19 11:04:00,64.0,-99.9,30.24,NE,48,8.0,10.0,-999,-99.99,,,-99.99,,2013-01-19 16:04:00,
2013-01-19 11:13:00,65.0,-99.9,30.23,NE,47,6.0,9.0,-999,-99.99,,,-99.99,,2013-01-19 16:13:00,
2013-01-19 11:23:00,65.0,-99.9,30.23,NE,47,6.0,8.0,-999,-99.99,,,-99.99,,2013-01-19 16:23:00,
2013-01-19 11:34:00,65.0,-99.9,30.23,NNE,33,6.0,8.0,-999,-99.99,,,-99.99,,2013-01-19 16:34:00,
2013-01-19 11:43:00,66.0,-99.9,30.22,NNE,32,5.0,8.0,-999,-99.99,,,-99.99,,2013-01-19 16:43:00,
2013-01-19 11:54:00,67.0,-99.9,30.21,NE,36,6.0,8.0,-999,-99.99,,,-99.99,,2013-01-19 16:54:00,
2013-01-19 12:03:00,67.0,-99.9,30.21,NE,43,6.0,9.0,-999,-99.99,,,-99.99,,2013-01-19 17:03:00,
2013-01-19 12:23:00,68.0,-99.9,30.20,NE,40,7.0,9.0,-999,-99.99,,,-99.99,,2013-01-19 17:23:00,
2013-01-19 12:29:00,68.0,-99.9,30.19,NE,36,7.0,9.0,-999,-99.99,,,-99.99,,2013-01-19 17:29:00,
2013-01-19 12:38:00,68.0,-99.9,30.19,NE,44,6.0,9.0,-999,-99.99,,,-99.99,,2013-01-19 17:38:00,
2013-01-19 12:55:00,69.0,-99.9,30.18,NE,42,6.0,8.0,-999,-99.99,,,-99.99,,2013-01-19 17:55:00,
2013-01-19 13:13:00,69.0,-99.9,30.17,NE,43,8.0,9.0,-999,-99.99,,,-99.99,,2013-01-19 18:13:00,
2013-01-19 13:29:00,70.0,-99.9,30.16,NE,46,8.0,10.0,-999,-99.99,,,-99.99,,2013-01-19 18:29:00,
2013-01-19 13:39:00,70.0,-99.9,30.15,NE,42,8.0,10.0,-999,-99.99,,,-99.99,,2013-01-19 18:39:00,
2013-01-19 13:48:00,70.0,-99.9,30.15,NE,42,8.0,11.0,-999,-99.99,,,-99.99,,2013-01-19 18:48:00,
2013-01-19 14:04:00,70.0,-99.9,30.14,NE,45,7.0,9.0,-999,-99.99,,,-99.99,,2013-01-19 19:04:00,
2013-01-19 14:10:00,70.0,-99.9,30.14,NE,35,8.0,10.0,-999,-99.99,,,-99.99,,2013-01-19 19:10:00,
2013-01-19 14:22:00,71.0,-99.9,30.13,NE,51,5.0,10.0,-999,-99.99,,,-99.99,,2013-01-19 19:22:00,
2013-01-19 14:32:00,71.0,-99.9,30.13,NE,50,7.0,11.0,-999,-99.99,,,-99.99,,2013-01-19 19:32:00,
2013-01-19 14:40:00,71.0,-99.9,30.12,NE,47,8.0,12.0,-999,-99.99,,,-99.99,,2013-01-19 19:40:00,
2013-01-19 14:50:00,71.0,-99.9,30.12,NE,41,8.0,11.0,-999,-99.99,,,-99.99,,2013-01-19 19:50:00,
2013-01-19 14:59:00,71.0,-99.9,30.12,NE,41,8.0,12.0,-999,-99.99,,,-99.99,,2013-01-19 19:59:00,
2013-01-19 15:12:00,71.0,-99.9,30.11,NE,42,8.0,10.0,-999,-99.99,,,-99.99,,2013-01-19 20:12:00,
2013-01-19 15:20:00,71.0,-99.9,30.11,NE,40,8.0,10.0,-999,-99.99,,,-99.99,,2013-01-19 20:20:00,
2013-01-19 15:28:00,71.0,-99.9,30.11,NE,39,8.0,11.0,-999,-99.99,,,-99.99,,2013-01-19 20:28:00,
2013-01-19 15:51:00,72.0,-99.9,30.10,NE,47,9.0,13.0,-999,-99.99,,,-99.99,,2013-01-19 20:51:00,
2013-01-19 15:59:00,72.0,-99.9,30.11,ENE,57,8.0,11.0,-999,-99.99,,,-99.99,,2013-01-19 20:59:00,
2013-01-19 16:09:00,73.0,-99.9,30.10,ENE,71,7.0,11.0,-999,-99.99,,,-99.99,,2013-01-19 21:09:00,
2013-01-19 16:15:00,72.0,-99.9,30.10,NE,48,8.0,11.0,-999,-99.99,,,-99.99,,2013-01-19 21:15:00,
2013-01-19 16:30:00,73.0,-99.9,30.10,ENE,57,5.0,11.0,-999,-99.99,,,-99.99,,2013-01-19 21:30:00,
2013-01-19 16:48:00,73.0,-99.9,30.10,ENE,57,5.0,11.0,-999,-99.99,,,-99.99,,2013-01-19 21:48:00,
2013-01-19 16:55:00,73.0,-99.9,30.10,ENE,59,4.0,10.0,-999,-99.99,,,-99.99,,2013-01-19 21:55:00,
2013-01-19 17:03:00,73.0,-99.9,30.10,ENE,74,7.0,10.0,-999,-99.99,,,-99.99,,2013-01-19 22:03:00,
2013-01-19 17:29:00,73.0,-99.9,30.10,East,79,6.0,8.0,-999,-99.99,,,-99.99,,2013-01-19 22:29:00,
2013-01-19 17:49:00,72.0,-99.9,30.11,NE,52,7.0,10.0,-999,-99.99,,,-99.99,,2013-01-19 22:49:00,
2013-01-19 17:59:00,71.0,-99.9,30.11,NE,56,5.0,11.0,-999,-99.99,,,-99.99,,2013-01-19 22:59:00,
2013-01-19 18:14:00,71.0,-99.9,30.11,NE,55,6.0,9.0,-999,-99.99,,,-99.99,,2013-01-19 23:14:00,
2013-01-19 18:29:00,71.0,-99.9,30.12,ENE,60,7.0,10.0,-999,-99.99,,,-99.99,,2013-01-19 23:29:00,
2013-01-19 18:35:00,71.0,-99.9,30.12,ENE,57,6.0,12.0,-999,-99.99,,,-99.99,,2013-01-19 23:35:00,
2013-01-19 19:08:00,70.0,-99.9,30.13,ENE,62,6.0,9.0,-999,-99.99,,,-99.99,,2013-01-20 00:08:00,
2013-01-19 19:26:00,69.0,-99.9,30.13,ENE,57,3.0,7.0,-999,-99.99,,,-99.99,,2013-01-20 00:26:00,
2013-01-19 19:39:00,69.0,-99.9,30.13,NE,41,5.0,6.0,-999,-99.99,,,-99.99,,2013-01-20 00:39:00,
2013-01-19 19:48:00,69.0,-99.9,30.13,NE,56,5.0,9.0,-999,-99.99,,,-99.99,,2013-01-20 00:48:00,
2013-01-19 20:05:00,69.0,-99.9,30.14,ENE,68,4.0,8.0,-999,-99.99,,,-99.99,,2013-01-20 01:05:00,
2013-01-19 20:22:00,68.0,-99.9,30.14,ENE,71,4.0,9.0,-999,-99.99,,,-99.99,,2013-01-20 01:22:00,
2013-01-19 20:28:00,68.0,-99.9,30.15,ENE,71,4.0,6.0,-999,-99.99,,,-99.99,,2013-01-20 01:28:00,
2013-01-19 20:39:00,68.0,-99.9,30.15,NE,47,6.0,9.0,-999,-99.99,,,-99.99,,2013-01-20 01:39:00,
2013-01-19 21:05:00,68.0,-99.9,30.15,ENE,64,6.0,9.0,-999,-99.99,,,-99.99,,2013-01-20 02:05:00,
2013-01-19 21:16:00,68.0,-99.9,30.15,ENE,59,6.0,9.0,-999,-99.99,,,-99.99,,2013-01-20 02:16:00,
2013-01-19 21:28:00,67.0,-99.9,30.15,ENE,66,6.0,9.0,-999,-99.99,,,-99.99,,2013-01-20 02:28:00,
2013-01-19 22:09:00,67.0,-99.9,30.15,NE,46,8.0,10.0,-999,-99.99,,,-99.99,,2013-01-20 03:09:00,
2013-01-19 22:15:00,67.0,-99.9,30.15,NE,49,7.0,11.0,-999,-99.99,,,-99.99,,2013-01-20 03:15:00,
2013-01-19 22:40:00,67.0,-99.9,30.15,ENE,72,5.0,8.0,-999,-99.99,,,-99.99,,2013-01-20 03:40:00,
2013-01-19 22:48:00,67.0,-99.9,30.15,NE,51,6.0,10.0,-999,-99.99,,,-99.99,,2013-01-20 03:48:00,
2013-01-19 22:59:00,66.0,-99.9,30.14,ENE,67,6.0,9.0,-999,-99.99,,,-99.99,,2013-01-20 03:59:00,
2013-01-19 23:05:00,67.0,-99.9,30.14,ENE,63,5.0,9.0,-999,-99.99,,,-99.99,,2013-01-20 04:05:00,
2013-01-19 23:16:00,67.0,-99.9,30.13,NE,53,5.0,11.0,-999,-99.99,,,-99.99,,2013-01-20 04:16:00,
2013-01-19 23:28:00,66.0,-99.9,30.13,NE,44,8.0,11.0,-999,-99.99,,,-99.99,,2013-01-20 04:28:00,
2013-01-19 23:39:00,66.0,-99.9,30.13,NE,41,6.0,9.0,-999,-99.99,,,-99.99,,2013-01-20 04:39:00,
2013-01-19 23:45:00,66.0,-99.9,30.13,NE,47,8.0,9.0,-999,-99.99,,,-99.99,,2013-01-20 04:45:00,
2013-01-19 23:59:00,66.0,-99.9,30.13,NE,43,6.0,9.0,-999,-99.99,,,-99.99,,2013-01-20 04:59:00,